EW4883 Weather Reports


Display with metric or nautical units.
time (UTC)temp
F
wind
direction
speed
MPH
gust
MPH
rain 1hr
in
rain 24hr
in
rain mn
in
humidity
%
barometer
mb
20210802211628 98 230 4.0 9.0 0.00 0.00 0.00 32 1016.8
20210802211050 98 302 3.0 9.0 0.00 0.00 0.00 32 1017.0
20210802210605 98 286 5.0 11.0 0.00 0.00 0.00 33 1017.1
20210802210223 98 286 4.0 11.0 0.00 0.00 0.00 33 1017.2
20210802205549 97 207 3.0 9.0 0.00 0.00 0.00 32 1017.1
20210802205051 98 288 5.0 9.0 0.00 0.00 0.00 33 1017.3
20210802204641 97 289 3.0 9.0 0.00 0.00 0.00 34 1017.3
20210802204049 97 17 1.0 9.0 0.00 0.00 0.00 34 1017.3
20210802203549 97 17 4.0 9.0 0.00 0.00 0.00 33 1017.5
20210802203352 97 360 3.0 7.0 0.00 0.00 0.00 34 1017.6
20210802202549 97 292 3.0 9.0 0.00 0.00 0.00 34 1017.7
20210802202049 97 261 4.0 9.0 0.00 0.00 0.00 33 1017.7
20210802201706 97 217 3.0 9.0 0.00 0.00 0.00 34 1017.7
20210802201109 96 265 2.0 6.0 0.00 0.00 0.00 35 1017.8
20210802200558 96 21 2.0 8.0 0.00 0.00 0.00 33 1018.0
20210802200121 96 84 3.0 8.0 0.00 0.00 0.00 34 1018.0
20210802195553 97 316 3.0 8.0 0.00 0.00 0.00 34 1018.0
20210802195052 96 344 3.0 8.0 0.00 0.00 0.00 34 1018.1
20210802194701 96 317 3.0 6.0 0.00 0.00 0.00 35 1018.2
20210802194051 96 331 2.0 7.0 0.00 0.00 0.00 34 1018.3
20210802193551 96 43 2.0 10.0 0.00 0.00 0.00 36 1018.3
20210802193233 95 328 5.0 10.0 0.00 0.00 0.00 36 1018.3
20210802192552 95 62 2.0 9.0 0.00 0.00 0.00 36 1018.4
20210802192049 95 13 4.0 8.0 0.00 0.00 0.00 36 1018.5
20210802191714 95 25 3.0 7.0 0.00 0.00 0.00 35 1018.5
20210802191124 95 24 2.0 7.0 0.00 0.00 0.00 35 1018.6
20210802190552 95 303 4.0 7.0 0.00 0.00 0.00 34 1018.6
20210802190209 95 257 1.0 6.0 0.00 0.00 0.00 36 1018.6
20210802185552 95 317 2.0 4.0 0.00 0.00 0.00 35 1018.6
20210802185049 95 348 2.0 4.0 0.00 0.00 0.00 37 1018.8
20210802184857 94 352 1.0 6.0 0.00 0.00 0.00 37 1018.8
20210802184051 93 352 3.0 9.0 0.00 0.00 0.00 37 1018.9
20210802183550 93 329 4.0 9.0 0.00 0.00 0.00 39 1018.9
20210802183227 94 40 2.0 7.0 0.00 0.00 0.00 38 1018.9
20210802182550 93 74 2.0 7.0 0.00 0.00 0.00 38 1019.0
20210802182050 94 75 1.0 7.0 0.00 0.00 0.00 39 1019.1
20210802181829 93 34 2.0 7.0 0.00 0.00 0.00 38 1019.1
20210802181049 93 331 2.0 8.0 0.00 0.00 0.00 38 1019.2
20210802180610 93 319 3.0 8.0 0.00 0.00 0.00 38 1019.3
20210802180223 93 0 3.0 9.0 0.00 0.00 0.00 39 1019.5
20210802175551 92 352 3.0 9.0 0.00 0.00 0.00 39 1019.7
20210802175051 92 61 2.0 5.0 0.00 0.00 0.00 40 1019.6
20210802174754 92 5 1.0 5.0 0.00 0.00 0.00 40 1019.7
20210802174111 92 5 2.0 5.0 0.00 0.00 0.00 42 1019.7
20210802173551 92 68 2.0 8.0 0.00 0.00 0.00 42 1019.8
20210802173159 91 46 3.0 8.0 0.00 0.00 0.00 42 1019.7
20210802172551 91 51 2.0 8.0 0.00 0.00 0.00 42 1019.7
20210802172053 91 38 4.0 8.0 0.00 0.00 0.00 42 1019.7
20210802171651 91 111 1.0 4.0 0.00 0.00 0.00 44 1019.7
20210802171051 91 111 2.0 7.0 0.00 0.00 0.00 42 1019.8
20210802170557 90 120 3.0 7.0 0.00 0.00 0.00 43 1019.9
20210802170225 90 149 3.0 8.0 0.00 0.00 0.00 44 1019.9
20210802165550 89 83 3.0 8.0 0.00 0.00 0.00 46 1020.0
20210802165050 89 116 4.0 8.0 0.00 0.00 0.00 46 1020.0
20210802164858 88 112 2.0 8.0 0.00 0.00 0.00 48 1020.0
20210802164115 88 90 5.0 8.0 0.00 0.00 0.00 48 1020.1
20210802163549 88 98 3.0 9.0 0.00 0.00 0.00 52 1020.1
20210802163213 87 59 4.0 9.0 0.00 0.00 0.00 51 1020.2
20210802162551 87 90 2.0 8.0 0.00 0.00 0.00 53 1020.1
20210802162051 88 90 4.0 8.0 0.00 0.00 0.00 53 1020.1
20210802161628 88 68 2.0 7.0 0.00 0.00 0.00 53 1020.1
20210802161050 88 60 3.0 7.0 0.00 0.00 0.00 52 1020.1
20210802160548 87 114 1.0 4.0 0.00 0.00 0.00 53 1020.1
20210802160241 87 0 1.0 4.0 0.00 0.00 0.00 51 1020.2
20210802155601 86 113 1.0 4.0 0.00 0.00 0.00 55 1020.2
20210802155105 85 113 0.0 3.0 0.00 0.00 0.00 59 1020.2
20210802154621 85 113 1.0 4.0 0.00 0.00 0.00 60 1020.3
20210802154049 84 113 1.0 4.0 0.00 0.00 0.00 61 1020.5
20210802153559 83 113 2.0 6.0 0.00 0.00 0.00 62 1020.5
20210802153146 83 111 2.0 7.0 0.00 0.00 0.00 63 1020.6
20210802152549 82 96 3.0 7.0 0.00 0.00 0.00 65 1020.7
20210802152052 82 95 2.0 6.0 0.00 0.00 0.00 65 1020.7
20210802151607 82 73 3.0 6.0 0.00 0.00 0.00 65 1020.7
20210802151051 81 26 3.0 5.0 0.00 0.00 0.00 67 1020.7
20210802150552 81 344 2.0 5.0 0.00 0.00 0.00 67 1020.6
20210802150158 81 316 2.0 4.0 0.00 0.00 0.00 68 1020.6
20210802145550 80 294 1.0 4.0 0.00 0.00 0.00 71 1020.6
20210802145058 79 279 1.0 2.0 0.00 0.00 0.00 74 1020.6
20210802144624 79 0 1.0 2.0 0.00 0.00 0.00 75 1020.6
20210802144051 78 279 0.0 2.0 0.00 0.00 0.00 75 1020.6
20210802143558 78 0 0.0 3.0 0.00 0.00 0.00 76 1020.6
20210802143111 78 279 1.0 3.0 0.00 0.00 0.00 76 1020.5
20210802142549 77 279 1.0 4.0 0.00 0.00 0.00 76 1020.5
20210802142111 77 279 2.0 4.0 0.00 0.00 0.00 76 1020.4
20210802141630 77 0 0.0 2.0 0.00 0.00 0.00 75 1020.4
20210802141100 77 0 0.0 2.0 0.00 0.00 0.00 76 1020.4
20210802140552 77 277 0.0 3.0 0.00 0.00 0.00 76 1020.3
20210802140121 77 0 1.0 6.0 0.00 0.00 0.00 75 1020.2
20210802135552 76 277 2.0 6.0 0.00 0.00 0.00 76 1020.1
20210802135059 76 278 1.0 3.0 0.00 0.00 0.00 76 1020.1
20210802134811 76 278 1.0 3.0 0.00 0.00 0.00 76 1020.1
20210802134056 76 279 1.0 3.0 0.00 0.00 0.00 76 1020.1
20210802133552 75 277 1.0 2.0 0.00 0.00 0.00 77 1020.1
20210802133204 75 360 0.0 2.0 0.00 0.00 0.00 78 1020.0
20210802132551 75 360 1.0 2.0 0.00 0.00 0.00 78 1019.9
20210802132114 75 360 1.0 2.0 0.00 0.00 0.00 79 1019.9
20210802131804 75 0 0.0 4.0 0.00 0.00 0.00 79 1019.9
20210802131051 75 278 1.0 4.0 0.00 0.00 0.00 77 1019.8
20210802130608 75 0 0.0 1.0 0.00 0.00 0.00 76 1019.8
20210802130221 75 0 0.0 2.0 0.00 0.00 0.00 74 1019.7
20210802125552 75 0 0.0 2.0 0.00 0.00 0.00 75 1019.6
20210802125052 75 278 0.0 3.0 0.00 0.00 0.00 76 1019.6
20210802124649 75 0 0.0 3.0 0.00 0.00 0.00 75 1019.6
20210802124051 75 360 1.0 3.0 0.00 0.00 0.00 75 1019.5
20210802123604 75 360 1.0 2.0 0.00 0.00 0.00 76 1019.5
20210802123142 76 360 0.0 2.0 0.00 0.00 0.00 76 1019.5
20210802122556 76 360 0.0 2.0 0.00 0.00 0.00 74 1019.6
20210802122051 76 0 0.0 4.0 0.00 0.00 0.00 73 1019.5
20210802121723 76 0 0.0 5.0 0.00 0.00 0.00 73 1019.4
20210802121055 76 360 2.0 5.0 0.00 0.00 0.00 73 1019.5
20210802120555 76 360 1.0 3.0 0.00 0.00 0.00 72 1019.3
20210802120247 76 0 0.0 1.0 0.00 0.00 0.00 73 1019.2
20210802115552 76 0 0.0 2.0 0.00 0.00 0.00 73 1019.1
20210802115051 76 0 0.0 2.0 0.00 0.00 0.00 71 1019.1
20210802114630 77 261 1.0 3.0 0.00 0.00 0.00 71 1018.9
20210802114052 77 360 1.0 3.0 0.00 0.00 0.00 70 1018.8
20210802113552 77 360 0.0 2.0 0.00 0.00 0.00 68 1018.7
20210802113207 77 360 0.0 2.0 0.00 0.00 0.00 67 1018.6
20210802112614 77 0 0.0 2.0 0.00 0.00 0.00 68 1018.6
20210802112053 77 360 1.0 3.0 0.00 0.00 0.00 67 1018.7
20210802111723 77 259 1.0 3.0 0.00 0.00 0.00 68 1018.6
20210802111119 78 259 0.0 2.0 0.00 0.00 0.00 67 1018.6
20210802110558 78 0 0.0 4.0 0.00 0.00 0.00 66 1018.6
20210802110226 78 360 2.0 4.0 0.00 0.00 0.00 67 1018.6
20210802105606 78 360 2.0 4.0 0.00 0.00 0.00 67 1018.7
20210802105055 78 360 1.0 3.0 0.00 0.00 0.00 68 1018.7
20210802104650 78 360 1.0 3.0 0.00 0.00 0.00 68 1018.6
20210802104058 78 360 1.0 2.0 0.00 0.00 0.00 66 1018.6
20210802103601 78 360 0.0 3.0 0.00 0.00 0.00 66 1018.7
20210802103149 78 360 0.0 3.0 0.00 0.00 0.00 66 1018.6
20210802102605 78 360 1.0 4.0 0.00 0.00 0.00 66 1018.5
20210802102102 78 360 2.0 4.0 0.00 0.00 0.00 67 1018.5
20210802101658 77 360 2.0 4.0 0.00 0.00 0.00 67 1018.5
20210802101050 77 360 1.0 3.0 0.00 0.00 0.00 67 1018.6
20210802100629 78 360 1.0 3.0 0.00 0.00 0.00 67 1018.5
20210802100138 77 360 1.0 3.0 0.00 0.00 0.00 67 1018.5
20210802095618 77 360 1.0 3.0 0.00 0.00 0.00 67 1018.4
20210802095104 77 360 2.0 4.0 0.00 0.00 0.00 68 1018.3
20210802094752 78 360 2.0 4.0 0.00 0.00 0.00 67 1018.3
20210802094107 78 360 1.0 4.0 0.00 0.00 0.00 67 1018.2
20210802093621 78 360 2.0 4.0 0.00 0.00 0.00 66 1018.2
20210802093231 78 360 1.0 3.0 0.00 0.00 0.00 66 1018.2
20210802092549 78 0 2.0 3.0 0.00 0.00 0.00 65 1018.2
20210802092104 78 360 2.0 3.0 0.00 0.00 0.00 65 1018.2
20210802091628 78 360 1.0 3.0 0.00 0.00 0.00 65 1018.2
20210802091114 79 360 0.0 3.0 0.00 0.00 0.00 65 1018.3
20210802090550 79 261 1.0 3.0 0.00 0.00 0.00 64 1018.2
20210802090241 79 261 1.0 3.0 0.00 0.00 0.00 64 1018.2
20210802085553 79 261 1.0 3.0 0.00 0.00 0.00 63 1018.1
20210802085058 79 261 2.0 3.0 0.00 0.00 0.00 63 1018.1
20210802084712 79 260 1.0 3.0 0.00 0.00 0.00 63 1018.2
20210802084053 80 260 1.0 3.0 0.00 0.00 0.00 63 1018.2
20210802083549 80 261 1.0 3.0 0.00 0.00 0.00 62 1018.2
20210802083119 80 261 1.0 3.0 0.00 0.00 0.00 60 1018.2
20210802082559 80 261 2.0 3.0 0.00 0.00 0.00 60 1018.2
20210802082050 80 261 2.0 4.0 0.00 0.00 0.00 60 1018.2
20210802081735 80 261 2.0 4.0 0.00 0.00 0.00 59 1018.2
20210802081138 80 261 3.0 6.0 0.00 0.00 0.00 59 1018.1
20210802080623 80 261 3.0 6.0 0.00 0.00 0.00 59 1018.2
20210802080114 80 261 3.0 6.0 0.00 0.00 0.00 59 1018.2
20210802075549 81 261 3.0 6.0 0.00 0.00 0.00 60 1018.1
20210802075050 81 261 2.0 6.0 0.00 0.00 0.00 58 1018.2
20210802074636 81 261 2.0 4.0 0.00 0.00 0.00 58 1018.3
20210802074052 80 261 2.0 4.0 0.00 0.00 0.00 59 1018.2
20210802073552 80 261 2.0 4.0 0.00 0.00 0.00 59 1018.4
20210802073121 81 261 2.0 3.0 0.00 0.00 0.00 60 1018.3
20210802072609 81 261 1.0 3.0 0.00 0.00 0.00 59 1018.3
20210802072108 81 261 1.0 3.0 0.00 0.00 0.00 60 1018.3
20210802071630 81 261 1.0 3.0 0.00 0.00 0.00 59 1018.3
20210802071111 81 261 1.0 3.0 0.00 0.00 0.00 59 1018.3
20210802070614 81 261 2.0 3.0 0.00 0.00 0.00 58 1018.3
20210802070224 81 261 2.0 3.0 0.00 0.00 0.00 58 1018.3
20210802065549 82 261 2.0 4.0 0.00 0.00 0.00 57 1018.4
20210802065054 82 261 2.0 4.0 0.00 0.00 0.00 56 1018.4
20210802064722 82 261 2.0 3.0 0.00 0.00 0.00 56 1018.5
20210802064051 82 261 2.0 3.0 0.00 0.00 0.00 55 1018.6
20210802063603 82 261 1.0 3.0 0.00 0.00 0.00 56 1018.7
20210802063220 82 261 2.0 3.0 0.00 0.00 0.00 55 1018.4
20210802062628 82 261 1.0 3.0 0.00 0.00 0.00 55 1018.4
20210802062050 83 261 1.0 3.0 0.00 0.00 0.00 54 1018.4
20210802061657 83 261 1.0 6.0 0.00 0.00 0.00 53 1018.3
20210802061123 83 261 2.0 6.0 0.00 0.00 0.00 52 1018.4
20210802060550 84 261 2.0 4.0 0.00 0.00 0.00 52 1018.5
20210802060129 84 261 2.0 4.0 0.00 0.00 0.00 51 1018.5
20210802055550 84 261 2.0 3.0 0.00 0.00 0.00 51 1018.5
20210802055051 85 261 2.0 3.0 0.00 0.00 0.00 49 1018.4
20210802054704 85 261 2.0 3.0 0.00 0.00 0.00 50 1018.3
20210802054049 85 261 2.0 3.0 0.00 0.00 0.00 49 1018.3
20210802053551 85 261 1.0 3.0 0.00 0.00 0.00 50 1018.4
20210802053119 84 261 2.0 3.0 0.00 0.00 0.00 50 1018.4
20210802052607 85 261 1.0 3.0 0.00 0.00 0.00 50 1018.3
20210802052053 85 261 1.0 4.0 0.00 0.00 0.00 49 1018.3
20210802051634 85 261 2.0 4.0 0.00 0.00 0.00 48 1018.4
20210802051051 85 261 2.0 4.0 0.00 0.00 0.00 48 1018.3
20210802050550 86 261 2.0 4.0 0.00 0.00 0.00 47 1018.3
20210802050142 86 261 3.0 6.0 0.00 0.00 0.00 47 1018.3
20210802045607 85 261 2.0 6.0 0.00 0.00 0.00 47 1018.3
20210802045052 85 261 2.0 4.0 0.00 0.00 0.00 48 1018.3
20210802044615 85 261 2.0 4.0 0.00 0.00 0.00 48 1018.3
20210802044053 85 261 2.0 4.0 0.00 0.00 0.00 48 1018.2
20210802043622 85 261 2.0 4.0 0.00 0.00 0.00 48 1018.2
20210802043114 85 261 2.0 3.0 0.00 0.00 0.00 48 1018.2
20210802042615 85 261 2.0 3.0 0.00 0.00 0.00 48 1018.1
20210802042051 85 261 2.0 4.0 0.00 0.00 0.00 48 1018.2
20210802041719 86 261 2.0 4.0 0.00 0.00 0.00 47 1018.2
20210802041108 86 261 2.0 4.0 0.00 0.00 0.00 46 1018.1
20210802040552 87 261 2.0 4.0 0.00 0.00 0.00 45 1018.1
20210802040232 87 261 2.0 4.0 0.00 0.00 0.00 45 1018.1
20210802035552 87 261 2.0 6.0 0.00 0.00 0.00 44 1018.1
20210802035104 87 261 2.0 6.0 0.00 0.00 0.00 44 1018.0
20210802034626 87 269 2.0 4.0 0.00 0.00 0.00 44 1018.0
20210802034109 87 269 2.0 6.0 0.00 0.00 0.00 44 1017.8
20210802033551 87 269 3.0 6.0 0.00 0.00 0.00 43 1017.8
20210802033221 87 278 2.0 4.0 0.00 0.00 0.00 43 1017.7
20210802032549 88 278 2.0 4.0 0.00 0.00 0.00 43 1017.7
20210802032049 88 279 2.0 4.0 0.00 0.00 0.00 42 1017.6
20210802031702 88 279 2.0 4.0 0.00 0.00 0.00 42 1017.5
20210802031050 88 279 2.0 4.0 0.00 0.00 0.00 42 1017.4
20210802030608 88 279 2.0 4.0 0.00 0.00 0.00 42 1017.4
20210802030227 89 279 2.0 4.0 0.00 0.00 0.00 42 1017.4
20210802025554 89 279 2.0 4.0 0.00 0.00 0.00 41 1017.4
20210802025055 89 279 2.0 4.0 0.00 0.00 0.00 41 1017.4
20210802024723 89 279 2.0 6.0 0.00 0.00 0.00 40 1017.4
20210802024052 89 279 2.0 6.0 0.00 0.00 0.00 40 1017.3
20210802023549 90 279 2.0 4.0 0.00 0.00 0.00 39 1017.1
20210802023144 90 281 2.0 6.0 0.00 0.00 0.00 39 1017.2
20210802022554 90 281 2.0 7.0 0.00 0.00 0.00 38 1017.2
20210802022059 91 283 2.0 7.0 0.00 0.00 0.00 38 1017.1
20210802021631 91 275 2.0 6.0 0.00 0.00 0.00 37 1016.9
20210802021056 91 284 3.0 8.0 0.00 0.00 0.00 37 1016.8
20210802020553 91 286 2.0 8.0 0.00 0.00 0.00 36 1016.8
20210802020247 92 285 3.0 9.0 0.00 0.00 0.00 36 1016.9
20210802015552 92 288 4.0 9.0 0.00 0.00 0.00 36 1016.7
20210802015058 92 287 3.0 7.0 0.00 0.00 0.00 36 1016.6
20210802014639 92 289 3.0 7.0 0.00 0.00 0.00 36 1016.6
20210802014114 92 269 3.0 10.0 0.00 0.00 0.00 36 1016.7
20210802013557 92 282 4.0 10.0 0.00 0.00 0.00 36 1016.6
20210802013154 92 309 2.0 8.0 0.00 0.00 0.00 36 1016.6
20210802012550 92 308 3.0 10.0 0.00 0.00 0.00 36 1016.6
20210802012053 93 289 3.0 10.0 0.00 0.00 0.00 35 1016.6
20210802011707 93 329 3.0 9.0 0.00 0.00 0.00 36 1016.6
20210802011049 94 319 3.0 9.0 0.00 0.00 0.00 35 1016.5
20210802010602 94 309 4.0 9.0 0.00 0.00 0.00 35 1016.4
20210802010152 94 283 3.0 8.0 0.00 0.00 0.00 36 1016.5
20210802005549 94 273 3.0 9.0 0.00 0.00 0.00 36 1016.6
20210802005114 94 278 4.0 12.0 0.00 0.00 0.00 36 1016.5
20210802004603 94 246 5.0 12.0 0.00 0.00 0.00 35 1016.4
20210802004051 94 303 3.0 9.0 0.00 0.00 0.00 35 1016.5
20210802003550 94 260 4.0 8.0 0.00 0.00 0.00 35 1016.4
20210802003117 94 290 2.0 10.0 0.00 0.00 0.00 36 1016.4
20210802002552 94 287 5.0 10.0 0.00 0.00 0.00 35 1016.4
20210802002051 95 302 4.0 9.0 0.00 0.00 0.00 34 1016.4
20210802001733 95 315 3.0 12.0 0.00 0.00 0.00 35 1016.3
20210802001050 94 287 6.0 12.0 0.00 0.00 0.00 36 1016.5
20210802000552 94 291 4.0 8.0 0.00 0.00 0.00 36 1016.4
20210802000127 94 282 2.0 8.0 0.00 0.00 0.00 36 1016.5
20210801235549 94 314 2.0 9.0 0.00 0.00 0.00 35 1016.5
20210801235101 95 329 5.0 9.0 0.00 0.00 0.00 35 1016.6
20210801234725 96 306 2.0 11.0 0.00 0.00 0.00 35 1016.5
20210801234051 96 258 4.0 11.0 0.00 0.00 0.00 35 1016.6
20210801233602 95 273 4.0 10.0 0.00 0.00 0.00 35 1016.6
20210801233243 96 5 4.0 9.0 0.00 0.00 0.00 35 1016.7
20210801232549 95 284 6.0 9.0 0.00 0.00 0.00 35 1016.8
20210801232050 95 296 3.0 12.0 0.00 0.00 0.00 36 1016.9
20210801231616 95 331 5.0 12.0 0.00 0.00 0.00 36 1016.9
20210801231052 95 327 3.0 12.0 0.00 0.00 0.00 35 1017.0
20210801230613 95 259 4.0 13.0 0.00 0.00 0.00 36 1017.2
20210801230149 95 260 6.0 13.0 0.00 0.00 0.00 36 1017.3
20210801225604 95 336 3.0 8.0 0.00 0.00 0.00 35 1017.2
20210801225118 94 345 2.0 9.0 0.00 0.00 0.00 37 1017.3
20210801224612 95 259 5.0 12.0 0.00 0.00 0.00 36 1017.4
20210801224115 95 289 6.0 14.0 0.00 0.00 0.00 37 1017.4
20210801223550 95 304 7.0 14.0 0.00 0.00 0.00 37 1017.4
20210801223208 96 311 3.0 12.0 0.00 0.00 0.00 36 1017.5
20210801222602 95 263 6.0 11.0 0.00 0.00 0.00 37 1017.6
20210801222049 95 317 3.0 8.0 0.00 0.00 0.00 38 1017.6
20210801221708 95 289 2.0 12.0 0.00 0.00 0.00 40 1017.6
20210801221050 95 284 5.0 13.0 0.00 0.00 0.00 38 1017.7
20210801220552 95 300 4.0 13.0 0.00 0.00 0.00 39 1017.7
20210801220246 95 242 6.0 14.0 0.00 0.00 0.00 37 1017.7
20210801215601 96 275 7.0 14.0 0.00 0.00 0.00 38 1017.7
20210801215049 96 243 3.0 8.0 0.00 0.00 0.00 36 1017.8
20210801214645 96 230 4.0 11.0 0.00 0.00 0.00 36 1017.8
20210801214052 96 276 6.0 11.0 0.00 0.00 0.00 37 1017.8
20210801213600 96 271 3.0 11.0 0.00 0.00 0.00 37 1018.0
20210801213351 96 302 4.0 11.0 0.00 0.00 0.00 37 1018.0
20210801212551 96 269 1.0 9.0 0.00 0.00 0.00 37 1018.0
20210801212051 96 271 5.0 10.0 0.00 0.00 0.00 37 1018.0